Year,Month,Day,Hour,Minute,Value (Times are PST for temperature in C)
2009,06,23,00,00,10.90
2009,06,23,00,01,10.90
2009,06,23,00,02,10.90
2009,06,23,00,03,10.90
2009,06,23,00,04,10.90
2009,06,23,00,05,10.80
2009,06,23,00,06,10.80
2009,06,23,00,07,10.80
2009,06,23,00,08,10.80
2009,06,23,00,09,10.80
2009,06,23,00,10,10.80
2009,06,23,00,11,10.80
2009,06,23,00,12,10.80
2009,06,23,00,13,10.80
2009,06,23,00,18,10.80
2009,06,23,00,19,10.80
2009,06,23,00,20,10.80
2009,06,23,00,21,10.80
2009,06,23,00,22,10.80
2009,06,23,00,23,10.80
2009,06,23,00,24,10.80
2009,06,23,00,25,10.80
2009,06,23,00,26,10.80
2009,06,23,00,27,10.70
2009,06,23,00,28,10.70
2009,06,23,00,29,10.70
2009,06,23,00,30,10.70
2009,06,23,00,31,10.70
2009,06,23,00,32,10.70
2009,06,23,00,33,10.70
2009,06,23,00,34,10.70
2009,06,23,00,35,10.70
2009,06,23,00,36,10.70
2009,06,23,00,37,10.70
2009,06,23,00,38,10.60
2009,06,23,00,39,10.60
2009,06,23,00,40,10.60
2009,06,23,00,41,10.60
2009,06,23,00,42,10.60
2009,06,23,00,43,10.60
2009,06,23,00,44,10.60
2009,06,23,00,45,10.60
2009,06,23,00,46,10.60
2009,06,23,00,47,10.60
2009,06,23,00,48,10.60
2009,06,23,00,49,10.60
2009,06,23,00,50,10.60
2009,06,23,00,51,10.60
2009,06,23,00,52,10.60
2009,06,23,00,53,10.60
2009,06,23,00,54,10.60
2009,06,23,00,55,10.60
2009,06,23,00,56,10.60
2009,06,23,00,57,10.60
2009,06,23,00,58,10.60
2009,06,23,00,59,10.60
2009,06,23,01,00,10.60
2009,06,23,01,01,10.60
2009,06,23,01,02,10.50
2009,06,23,01,03,10.50
2009,06,23,01,04,10.60
2009,06,23,01,05,10.60
2009,06,23,01,06,10.50
2009,06,23,01,07,10.50
2009,06,23,01,08,10.50
2009,06,23,01,09,10.50
2009,06,23,01,10,10.50
2009,06,23,01,11,10.40
2009,06,23,01,12,10.40
2009,06,23,01,13,10.40
2009,06,23,01,14,10.40
2009,06,23,01,15,10.40
2009,06,23,01,16,10.30
2009,06,23,01,17,10.30
2009,06,23,01,18,10.30
2009,06,23,01,19,10.30
2009,06,23,01,20,10.30
2009,06,23,01,21,10.20
2009,06,23,01,22,10.20
2009,06,23,01,23,10.20
2009,06,23,01,24,10.20
2009,06,23,01,25,10.20
2009,06,23,01,26,10.20
2009,06,23,01,27,10.20
2009,06,23,01,28,10.20
2009,06,23,01,29,10.10
2009,06,23,01,30,10.10
2009,06,23,01,31,10.10
2009,06,23,01,32,10.10
2009,06,23,01,33,10.10
2009,06,23,01,34,10.10
2009,06,23,01,35,10.10
2009,06,23,01,36,10.10
2009,06,23,01,37,10.10
2009,06,23,01,38,10.10
2009,06,23,01,39,10.10
2009,06,23,01,40,10.00
2009,06,23,01,41,10.00
2009,06,23,01,42,10.00
2009,06,23,01,43,10.00
2009,06,23,01,44,10.00
2009,06,23,01,45,10.00
2009,06,23,01,46,10.00
2009,06,23,01,47,9.90
2009,06,23,01,48,9.90
2009,06,23,01,49,9.90
2009,06,23,01,50,9.90
2009,06,23,01,51,9.90
2009,06,23,01,52,9.90
2009,06,23,01,53,9.90
2009,06,23,01,54,9.80
2009,06,23,01,55,9.80
2009,06,23,01,56,9.80
2009,06,23,01,57,9.80
2009,06,23,01,58,9.80
2009,06,23,01,59,9.80
2009,06,23,02,00,9.80
2009,06,23,02,01,9.70
2009,06,23,02,02,9.70
2009,06,23,02,03,9.70
2009,06,23,02,04,9.70
2009,06,23,02,05,9.70
2009,06,23,02,06,9.70
2009,06,23,02,07,9.60
2009,06,23,02,08,9.60
2009,06,23,02,09,9.60
2009,06,23,02,10,9.60
2009,06,23,02,11,9.60
2009,06,23,02,12,9.60
2009,06,23,02,13,9.60
2009,06,23,02,14,9.60
2009,06,23,02,15,9.60
2009,06,23,02,16,9.60
2009,06,23,02,17,9.60
2009,06,23,02,18,9.60
2009,06,23,02,19,9.60
2009,06,23,02,20,9.50
2009,06,23,02,21,9.50
2009,06,23,02,22,9.50
2009,06,23,02,23,9.50
2009,06,23,02,24,9.50
2009,06,23,02,25,9.40
2009,06,23,02,26,9.40
2009,06,23,02,27,9.40
2009,06,23,02,28,9.40
2009,06,23,02,29,9.40
2009,06,23,02,30,9.50
2009,06,23,02,31,9.40
2009,06,23,02,32,9.40
2009,06,23,02,33,9.40
2009,06,23,02,34,9.40
2009,06,23,02,35,9.40
2009,06,23,02,36,9.50
2009,06,23,02,37,9.40
2009,06,23,02,38,9.40
2009,06,23,02,39,9.40
2009,06,23,02,40,9.40
2009,06,23,02,41,9.40
2009,06,23,02,42,9.40
2009,06,23,02,43,9.40
2009,06,23,02,44,9.50
2009,06,23,02,45,9.50
2009,06,23,02,46,9.50
2009,06,23,02,47,9.50
2009,06,23,02,48,9.40
2009,06,23,02,49,9.40
2009,06,23,02,50,9.40
2009,06,23,02,51,9.40
2009,06,23,02,52,9.40
2009,06,23,02,53,9.40
2009,06,23,02,54,9.50
2009,06,23,02,55,9.40
2009,06,23,02,56,9.40
2009,06,23,02,57,9.50
2009,06,23,02,58,9.40
2009,06,23,02,59,9.40
2009,06,23,03,00,9.40
2009,06,23,03,01,9.40
2009,06,23,03,02,9.40
2009,06,23,03,03,9.40
2009,06,23,03,04,9.40
2009,06,23,03,05,9.30
2009,06,23,03,06,9.30
2009,06,23,03,07,9.30
2009,06,23,03,08,9.40
2009,06,23,03,09,9.40
2009,06,23,03,10,9.40
2009,06,23,03,11,9.40
2009,06,23,03,12,9.40
2009,06,23,03,13,9.40
2009,06,23,03,14,9.40
2009,06,23,03,15,9.40
2009,06,23,03,16,9.40
2009,06,23,03,17,9.40
2009,06,23,03,18,9.40
2009,06,23,03,19,9.40
2009,06,23,03,20,9.40
2009,06,23,03,21,9.40
2009,06,23,03,22,9.40
2009,06,23,03,23,9.40
2009,06,23,03,24,9.40
2009,06,23,03,25,9.40
2009,06,23,03,26,9.40
2009,06,23,03,27,9.30
2009,06,23,03,28,9.30
2009,06,23,03,29,9.30
2009,06,23,03,30,9.30
2009,06,23,03,31,9.30
2009,06,23,03,32,9.30
2009,06,23,03,33,9.30
2009,06,23,03,34,9.30
2009,06,23,03,35,9.40
2009,06,23,03,36,9.40
2009,06,23,03,37,9.30
2009,06,23,03,38,9.30
2009,06,23,03,39,9.30
2009,06,23,03,40,9.30
2009,06,23,03,41,9.30
2009,06,23,03,42,9.30
2009,06,23,03,43,9.30
2009,06,23,03,44,9.40
2009,06,23,03,45,9.30
2009,06,23,03,46,9.40
2009,06,23,03,47,9.40
2009,06,23,03,48,9.40
2009,06,23,03,49,9.40
2009,06,23,03,50,9.40
2009,06,23,03,51,9.30
2009,06,23,03,52,9.30
2009,06,23,03,53,9.30
2009,06,23,03,54,9.30
2009,06,23,03,55,9.30
2009,06,23,03,56,9.30
2009,06,23,03,57,9.30
2009,06,23,03,58,9.30
2009,06,23,03,59,9.30
2009,06,23,04,00,9.40
2009,06,23,04,01,9.40
2009,06,23,04,02,9.40
2009,06,23,04,03,9.40
2009,06,23,04,04,9.30
2009,06,23,04,05,9.30
2009,06,23,04,06,9.30
2009,06,23,04,07,9.30
2009,06,23,04,08,9.30
2009,06,23,04,09,9.30
2009,06,23,04,10,9.30
2009,06,23,04,11,9.30
2009,06,23,04,12,9.30
2009,06,23,04,13,9.30
2009,06,23,04,14,9.30
2009,06,23,04,15,9.30
2009,06,23,04,16,9.30
2009,06,23,04,17,9.30
2009,06,23,04,18,9.30
2009,06,23,04,19,9.30
2009,06,23,04,20,9.30
2009,06,23,04,21,9.30
2009,06,23,04,22,9.30
2009,06,23,04,23,9.30
2009,06,23,04,24,9.30
2009,06,23,04,25,9.30
2009,06,23,04,26,9.30
2009,06,23,04,27,9.30
2009,06,23,04,28,9.30
2009,06,23,04,29,9.30
2009,06,23,04,30,9.30
2009,06,23,04,31,9.30
2009,06,23,04,32,9.30
2009,06,23,04,33,9.30
2009,06,23,04,34,9.30
2009,06,23,04,35,9.30
2009,06,23,04,36,9.30
2009,06,23,04,37,9.30
2009,06,23,04,38,9.30
2009,06,23,04,39,9.20
2009,06,23,04,40,9.20
2009,06,23,04,41,9.20
2009,06,23,04,42,9.20
2009,06,23,04,43,9.20
2009,06,23,04,44,9.20
2009,06,23,04,45,9.20
2009,06,23,04,46,9.20
2009,06,23,04,47,9.20
2009,06,23,04,48,9.10
2009,06,23,04,49,9.10
2009,06,23,04,50,9.10
2009,06,23,04,51,9.10
2009,06,23,04,52,9.10
2009,06,23,04,53,9.10
2009,06,23,04,54,9.10
2009,06,23,04,55,9.10
2009,06,23,04,56,9.10
2009,06,23,04,57,9.20
2009,06,23,04,58,9.20
2009,06,23,04,59,9.20
2009,06,23,05,00,9.20
2009,06,23,05,01,9.20
2009,06,23,05,02,9.20
2009,06,23,05,03,9.20
2009,06,23,05,04,9.20
2009,06,23,05,05,9.20
2009,06,23,05,06,9.20
2009,06,23,05,07,9.20
2009,06,23,05,08,9.20
2009,06,23,05,09,9.20
2009,06,23,05,10,9.20
2009,06,23,05,11,9.20
2009,06,23,05,12,9.10
2009,06,23,05,13,9.10
2009,06,23,05,14,9.10
2009,06,23,05,15,9.10
2009,06,23,05,16,9.10
2009,06,23,05,17,9.10
2009,06,23,05,18,9.10
2009,06,23,05,19,9.10
2009,06,23,05,20,9.10
2009,06,23,05,21,9.10
2009,06,23,05,22,9.00
2009,06,23,05,23,8.90
2009,06,23,05,24,8.90
2009,06,23,05,25,8.80
2009,06,23,05,26,8.70
2009,06,23,05,27,8.70
2009,06,23,05,28,8.60
2009,06,23,05,29,8.60
2009,06,23,05,30,8.50
2009,06,23,05,31,8.50
2009,06,23,05,32,8.50
2009,06,23,05,33,8.40
2009,06,23,05,34,8.40
2009,06,23,05,35,8.40
2009,06,23,05,36,8.30
2009,06,23,05,37,8.30
2009,06,23,05,38,8.30
2009,06,23,05,39,8.30
2009,06,23,05,40,8.20
2009,06,23,05,41,8.20
2009,06,23,05,42,8.20
2009,06,23,05,43,8.20
2009,06,23,05,44,8.20
2009,06,23,05,45,8.20
2009,06,23,05,46,8.20
2009,06,23,05,47,8.20
2009,06,23,05,48,8.20
2009,06,23,05,49,8.20
2009,06,23,05,50,8.30
2009,06,23,05,51,8.30
2009,06,23,05,52,8.30
2009,06,23,05,53,8.30
2009,06,23,05,54,8.30
2009,06,23,05,55,8.30
2009,06,23,05,56,8.30
2009,06,23,05,57,8.30
2009,06,23,05,58,8.30
2009,06,23,05,59,8.30
2009,06,23,06,00,8.30
2009,06,23,06,01,8.30
2009,06,23,06,02,8.30
2009,06,23,06,03,8.40
2009,06,23,06,04,8.40
2009,06,23,06,05,8.40
2009,06,23,06,06,8.40
2009,06,23,06,07,8.40
2009,06,23,06,08,8.40
2009,06,23,06,09,8.50
2009,06,23,06,10,8.50
2009,06,23,06,11,8.50
2009,06,23,06,12,8.50
2009,06,23,06,13,8.50
2009,06,23,06,14,8.50
2009,06,23,06,15,8.60
2009,06,23,06,16,8.60
2009,06,23,06,17,8.60
2009,06,23,06,18,8.60
2009,06,23,06,19,8.60
2009,06,23,06,20,8.70
2009,06,23,06,21,8.70
2009,06,23,06,22,8.70
2009,06,23,06,23,8.80
2009,06,23,06,24,8.80
2009,06,23,06,25,8.80
2009,06,23,06,26,8.80
2009,06,23,06,27,8.80
2009,06,23,06,28,8.90
2009,06,23,06,29,8.90
2009,06,23,06,30,8.90
2009,06,23,06,31,8.90
2009,06,23,06,32,8.90
2009,06,23,06,33,9.00
2009,06,23,06,34,9.00
2009,06,23,06,35,9.10
2009,06,23,06,36,9.10
2009,06,23,06,37,9.20
2009,06,23,06,38,9.20
2009,06,23,06,39,9.30
2009,06,23,06,40,9.30
2009,06,23,06,41,9.40
2009,06,23,06,42,9.40
2009,06,23,06,43,9.40
2009,06,23,06,44,9.50
2009,06,23,06,45,9.50
2009,06,23,06,46,9.50
2009,06,23,06,47,9.60
2009,06,23,06,48,9.60
2009,06,23,06,49,9.60
2009,06,23,06,50,9.60
2009,06,23,06,51,9.60
2009,06,23,06,52,9.70
2009,06,23,06,53,9.70
2009,06,23,06,54,9.70
2009,06,23,06,55,9.70
2009,06,23,06,56,9.70
2009,06,23,06,57,9.80
2009,06,23,06,58,9.80
2009,06,23,06,59,9.80
2009,06,23,07,00,9.90
2009,06,23,07,01,10.00
2009,06,23,07,02,10.10
2009,06,23,07,03,10.10
2009,06,23,07,04,10.20
2009,06,23,07,05,10.30
2009,06,23,07,06,10.40
2009,06,23,07,07,10.60
2009,06,23,07,08,10.70
2009,06,23,07,09,10.80
2009,06,23,07,10,10.90
2009,06,23,07,11,11.00
2009,06,23,07,12,11.10
2009,06,23,07,13,11.20
2009,06,23,07,14,11.30
2009,06,23,07,15,11.40
2009,06,23,07,16,11.50
2009,06,23,07,17,11.50
2009,06,23,07,18,11.60
2009,06,23,07,19,11.70
2009,06,23,07,20,11.70
2009,06,23,07,21,11.70
2009,06,23,07,22,11.80
2009,06,23,07,23,11.80
2009,06,23,07,24,11.80
2009,06,23,07,25,11.80
2009,06,23,07,26,11.80
2009,06,23,07,27,11.80
2009,06,23,07,28,11.90
2009,06,23,07,29,11.90
2009,06,23,07,30,12.00
2009,06,23,07,31,12.00
2009,06,23,07,32,12.10
2009,06,23,07,33,12.10
2009,06,23,07,34,12.20
2009,06,23,07,35,12.30
2009,06,23,07,36,12.30
2009,06,23,07,37,12.40
2009,06,23,07,38,12.50
2009,06,23,07,39,12.50
2009,06,23,07,40,12.60
2009,06,23,07,41,12.60
2009,06,23,07,42,12.60
2009,06,23,07,43,12.60
2009,06,23,07,44,12.60
2009,06,23,07,45,12.70
2009,06,23,07,46,12.70
2009,06,23,07,47,12.70
2009,06,23,07,48,12.70
2009,06,23,07,49,12.70
2009,06,23,07,50,12.70
2009,06,23,07,51,12.70
2009,06,23,07,52,12.70
2009,06,23,07,53,12.70
2009,06,23,07,54,12.80
2009,06,23,07,55,12.80
2009,06,23,07,56,12.80
2009,06,23,07,57,12.80
2009,06,23,07,58,12.80
2009,06,23,07,59,12.90
2009,06,23,08,00,12.90
2009,06,23,08,01,13.00
2009,06,23,08,02,13.00
2009,06,23,08,03,13.10
2009,06,23,08,04,13.10
2009,06,23,08,05,13.20
2009,06,23,08,06,13.30
2009,06,23,08,07,13.30
2009,06,23,08,08,13.30
2009,06,23,08,09,13.40
2009,06,23,08,10,13.50
2009,06,23,08,11,13.50
2009,06,23,08,12,13.40
2009,06,23,08,13,13.40
2009,06,23,08,14,13.30
2009,06,23,08,15,13.30
2009,06,23,08,16,13.30
2009,06,23,08,17,13.30
2009,06,23,08,18,13.30
2009,06,23,08,19,13.30
2009,06,23,08,20,13.30
2009,06,23,08,21,13.30
2009,06,23,08,22,13.40
2009,06,23,08,23,13.50
2009,06,23,08,24,13.50
2009,06,23,08,25,13.60
2009,06,23,08,26,13.60
2009,06,23,08,27,13.60
2009,06,23,08,28,13.60
2009,06,23,08,29,13.50
2009,06,23,08,30,13.60
2009,06,23,08,31,13.60
2009,06,23,08,32,13.70
2009,06,23,08,33,13.70
2009,06,23,08,34,13.70
2009,06,23,08,35,13.70
2009,06,23,08,36,13.70
2009,06,23,08,37,13.70
2009,06,23,08,38,13.70
2009,06,23,08,39,13.80
2009,06,23,08,40,13.80
2009,06,23,08,41,13.90
2009,06,23,08,42,14.00
2009,06,23,08,43,14.10
2009,06,23,08,44,14.10
2009,06,23,08,45,14.10
2009,06,23,08,46,14.10
2009,06,23,08,47,14.20
2009,06,23,08,48,14.30
2009,06,23,08,49,14.40
2009,06,23,08,50,14.50
2009,06,23,08,51,14.60
2009,06,23,08,52,14.60
2009,06,23,08,53,14.50
2009,06,23,08,54,14.40
2009,06,23,08,55,14.40
2009,06,23,08,56,14.40
2009,06,23,08,57,14.40
2009,06,23,08,58,14.50
2009,06,23,08,59,14.60
2009,06,23,09,00,14.70
2009,06,23,09,01,14.90
2009,06,23,09,02,15.00
2009,06,23,09,03,15.20
2009,06,23,09,04,15.30
2009,06,23,09,05,15.50
2009,06,23,09,06,15.60
2009,06,23,09,07,15.70
2009,06,23,09,08,15.80
2009,06,23,09,09,15.80
2009,06,23,09,10,15.80
2009,06,23,09,11,15.80
2009,06,23,09,12,15.70
2009,06,23,09,13,15.60
2009,06,23,09,14,15.50
2009,06,23,09,15,15.40
2009,06,23,09,16,15.40
2009,06,23,09,17,15.40
2009,06,23,09,18,15.40
2009,06,23,09,19,15.40
2009,06,23,09,20,15.30
2009,06,23,09,21,15.20
2009,06,23,09,22,15.10
2009,06,23,09,23,15.10
2009,06,23,09,24,15.20
2009,06,23,09,25,15.10
2009,06,23,09,26,15.00
2009,06,23,09,27,15.00
2009,06,23,09,28,15.00
2009,06,23,09,29,15.20
2009,06,23,09,30,15.20
2009,06,23,09,31,15.30
2009,06,23,09,32,15.30
2009,06,23,09,33,15.30
2009,06,23,09,34,15.20
2009,06,23,09,35,15.30
2009,06,23,09,36,15.30
2009,06,23,09,37,15.30
2009,06,23,09,38,15.30
2009,06,23,09,39,15.30
2009,06,23,09,40,15.30
2009,06,23,09,41,15.30
2009,06,23,09,42,15.40
2009,06,23,09,43,15.50
2009,06,23,09,44,15.50
2009,06,23,09,45,15.40
2009,06,23,09,46,15.30
2009,06,23,09,47,15.10
2009,06,23,09,48,15.00
2009,06,23,09,49,15.00
2009,06,23,09,50,15.00
2009,06,23,09,51,15.00
2009,06,23,09,52,14.90
2009,06,23,09,53,14.80
2009,06,23,09,54,14.70
2009,06,23,09,55,14.70
2009,06,23,09,56,14.70
2009,06,23,09,57,14.80
2009,06,23,09,58,14.80
2009,06,23,09,59,14.90
2009,06,23,10,00,15.00
2009,06,23,10,01,15.00
2009,06,23,10,02,15.00
2009,06,23,10,03,15.00
2009,06,23,10,04,15.00
2009,06,23,10,05,15.00
2009,06,23,10,06,15.00
2009,06,23,10,07,15.00
2009,06,23,10,08,15.00
2009,06,23,10,09,15.00
2009,06,23,10,10,15.00
2009,06,23,10,11,14.80
2009,06,23,10,12,14.80
2009,06,23,10,13,14.80
2009,06,23,10,14,14.80
2009,06,23,10,15,15.00
2009,06,23,10,16,15.00
2009,06,23,10,17,15.00
2009,06,23,10,18,15.20
2009,06,23,10,19,15.40
2009,06,23,10,20,15.50
2009,06,23,10,21,15.60
2009,06,23,10,22,15.60
2009,06,23,10,23,15.50
2009,06,23,10,24,15.40
2009,06,23,10,25,15.30
2009,06,23,10,26,15.20
2009,06,23,10,27,15.10
2009,06,23,10,28,15.00
2009,06,23,10,29,15.00
2009,06,23,10,30,15.00
2009,06,23,10,31,15.00
2009,06,23,10,32,15.00
2009,06,23,10,33,15.00
2009,06,23,10,34,15.20
2009,06,23,10,35,15.30
2009,06,23,10,36,15.20
2009,06,23,10,37,15.00
2009,06,23,10,38,14.90
2009,06,23,10,39,14.70
2009,06,23,10,40,14.60
2009,06,23,10,41,14.60
2009,06,23,10,42,14.70
2009,06,23,10,43,14.80
2009,06,23,10,44,15.00
2009,06,23,10,45,15.00
2009,06,23,10,46,15.00
2009,06,23,10,47,15.00
2009,06,23,10,48,15.00
2009,06,23,10,49,15.10
2009,06,23,10,50,15.10
2009,06,23,10,51,15.10
2009,06,23,10,52,15.10
2009,06,23,10,53,15.20
2009,06,23,10,54,15.20
2009,06,23,10,55,15.20
2009,06,23,10,56,15.30
2009,06,23,10,57,15.40
2009,06,23,10,58,15.40
2009,06,23,10,59,15.50
2009,06,23,11,00,15.60
2009,06,23,11,01,15.60
2009,06,23,11,02,15.60
2009,06,23,11,03,15.80
2009,06,23,11,04,15.90
2009,06,23,11,05,15.90
2009,06,23,11,06,15.90
2009,06,23,11,07,15.90
2009,06,23,11,08,15.90
2009,06,23,11,09,15.90
2009,06,23,11,10,15.90
2009,06,23,11,11,15.80
2009,06,23,11,12,15.70
2009,06,23,11,13,15.60
2009,06,23,11,14,15.70
2009,06,23,11,15,15.80
2009,06,23,11,16,15.90
2009,06,23,11,17,16.00
2009,06,23,11,18,16.20
2009,06,23,11,19,16.40
2009,06,23,11,20,16.50
2009,06,23,11,21,16.70
2009,06,23,11,22,16.70
2009,06,23,11,23,16.70
2009,06,23,11,24,16.70
2009,06,23,11,25,16.60
2009,06,23,11,26,16.60
2009,06,23,11,27,16.70
2009,06,23,11,28,16.70
2009,06,23,11,29,16.70
2009,06,23,11,30,16.80
2009,06,23,11,31,16.90
2009,06,23,11,32,17.00
2009,06,23,11,33,17.10
2009,06,23,11,34,17.10
2009,06,23,11,35,17.00
2009,06,23,11,36,16.80
2009,06,23,11,37,16.60
2009,06,23,11,38,16.50
2009,06,23,11,39,16.30
2009,06,23,11,40,16.20
2009,06,23,11,41,16.00
2009,06,23,11,42,15.90
2009,06,23,11,43,15.80
2009,06,23,11,44,15.80
2009,06,23,11,45,15.80
2009,06,23,11,46,15.70
2009,06,23,11,47,15.70
2009,06,23,11,48,15.80
2009,06,23,11,49,15.90
2009,06,23,11,50,15.90
2009,06,23,11,51,15.90
2009,06,23,11,52,16.00
2009,06,23,11,53,16.00
2009,06,23,11,54,16.00
2009,06,23,11,55,15.90
2009,06,23,11,56,15.80
2009,06,23,11,57,15.60
2009,06,23,11,58,15.50
2009,06,23,11,59,15.60
2009,06,23,12,00,15.60
2009,06,23,12,01,15.70
2009,06,23,12,02,15.80
2009,06,23,12,03,15.80
2009,06,23,12,04,15.70
2009,06,23,12,05,15.60
2009,06,23,12,06,15.50
2009,06,23,12,07,15.50
2009,06,23,12,08,15.40
2009,06,23,12,09,15.40
2009,06,23,12,10,15.50
2009,06,23,12,11,15.50
2009,06,23,12,12,15.50
2009,06,23,12,13,15.50
2009,06,23,12,14,15.60
2009,06,23,12,15,15.70
2009,06,23,12,16,15.70
2009,06,23,12,17,15.80
2009,06,23,12,18,15.80
2009,06,23,12,19,15.80
2009,06,23,12,20,15.90
2009,06,23,12,21,15.90
2009,06,23,12,22,16.00
2009,06,23,12,23,16.00
2009,06,23,12,24,16.10
2009,06,23,12,25,16.20
2009,06,23,12,26,16.20
2009,06,23,12,27,16.20
2009,06,23,12,28,16.30
2009,06,23,12,29,16.30
2009,06,23,12,30,16.30
2009,06,23,12,31,16.30
2009,06,23,12,32,16.40
2009,06,23,12,33,16.50
2009,06,23,12,34,16.60
2009,06,23,12,35,16.80
2009,06,23,12,36,16.80
2009,06,23,12,37,16.80
2009,06,23,12,38,16.80
2009,06,23,12,39,16.80
2009,06,23,12,40,16.80
2009,06,23,12,41,16.90
2009,06,23,12,42,16.80
2009,06,23,12,43,16.70
2009,06,23,12,44,16.50
2009,06,23,12,45,16.40
2009,06,23,12,46,16.40
2009,06,23,12,47,16.40
2009,06,23,12,48,16.30
2009,06,23,12,49,16.20
2009,06,23,12,50,16.10
2009,06,23,12,51,16.10
2009,06,23,12,52,16.20
2009,06,23,12,53,16.10
2009,06,23,12,54,16.00
2009,06,23,12,55,16.00
2009,06,23,12,56,16.00
2009,06,23,12,57,16.10
2009,06,23,12,58,16.10
2009,06,23,12,59,16.10
2009,06,23,13,00,16.00
2009,06,23,13,01,16.00
2009,06,23,13,02,16.00
2009,06,23,13,03,15.90
2009,06,23,13,04,15.80
2009,06,23,13,05,15.80
2009,06,23,13,06,15.90
2009,06,23,13,07,15.90
2009,06,23,13,08,16.00
2009,06,23,13,09,16.00
2009,06,23,13,10,16.10
2009,06,23,13,11,16.20
2009,06,23,13,12,16.20
2009,06,23,13,13,16.20
2009,06,23,13,14,16.20
2009,06,23,13,15,16.20
2009,06,23,13,16,16.20
2009,06,23,13,17,16.20
2009,06,23,13,18,16.30
2009,06,23,13,19,16.50
2009,06,23,13,20,16.60
2009,06,23,13,21,16.70
2009,06,23,13,22,16.80
2009,06,23,13,23,17.00
2009,06,23,13,24,17.10
2009,06,23,13,25,17.30
2009,06,23,13,26,17.30
2009,06,23,13,27,17.10
2009,06,23,13,28,16.90
2009,06,23,13,29,16.90
2009,06,23,13,30,17.00
2009,06,23,13,31,17.00
2009,06,23,13,32,16.90
2009,06,23,13,33,16.90
2009,06,23,13,34,17.10
2009,06,23,13,35,17.20
2009,06,23,13,36,17.30
2009,06,23,13,37,17.30
2009,06,23,13,38,17.40
2009,06,23,13,39,17.40
2009,06,23,13,40,17.40
2009,06,23,13,41,17.50
2009,06,23,13,42,17.60
2009,06,23,13,43,17.70
2009,06,23,13,44,17.70
2009,06,23,13,45,17.70
2009,06,23,13,46,17.50
2009,06,23,13,47,17.50
2009,06,23,13,48,17.40
2009,06,23,13,49,17.40
2009,06,23,13,50,17.40
2009,06,23,13,51,17.30
2009,06,23,13,52,17.30
2009,06,23,13,53,17.40
2009,06,23,13,54,17.40
2009,06,23,13,55,17.50
2009,06,23,13,56,17.60
2009,06,23,13,57,17.70
2009,06,23,13,58,17.80
2009,06,23,13,59,17.80
2009,06,23,14,00,17.80
2009,06,23,14,01,17.90
2009,06,23,14,02,17.90
2009,06,23,14,03,17.80
2009,06,23,14,04,17.90
2009,06,23,14,05,17.80
2009,06,23,14,06,17.70
2009,06,23,14,07,17.70
2009,06,23,14,08,17.70
2009,06,23,14,09,17.70
2009,06,23,14,10,17.70
2009,06,23,14,11,17.80
2009,06,23,14,12,17.90
2009,06,23,14,13,18.10
2009,06,23,14,14,18.10
2009,06,23,14,15,18.30
2009,06,23,14,16,18.30
2009,06,23,14,17,18.20
2009,06,23,14,18,18.10
2009,06,23,14,19,18.00
2009,06,23,14,20,17.90
2009,06,23,14,21,17.70
2009,06,23,14,22,17.50
2009,06,23,14,23,17.40
2009,06,23,14,24,17.40
2009,06,23,14,25,17.30
2009,06,23,14,26,17.20
2009,06,23,14,27,17.30
2009,06,23,14,28,17.40
2009,06,23,14,29,17.50
2009,06,23,14,30,17.60
2009,06,23,14,31,17.70
2009,06,23,14,32,17.70
2009,06,23,14,33,17.70
2009,06,23,14,34,17.90
2009,06,23,14,35,18.00
2009,06,23,14,36,18.10
2009,06,23,14,37,18.10
2009,06,23,14,38,18.00
2009,06,23,14,39,18.00
2009,06,23,14,40,18.00
2009,06,23,14,41,18.00
2009,06,23,14,42,17.90
2009,06,23,14,43,17.90
2009,06,23,14,44,17.90
2009,06,23,14,45,17.90
2009,06,23,14,46,17.80
2009,06,23,14,47,17.80
2009,06,23,14,48,17.80
2009,06,23,14,49,17.70
2009,06,23,14,50,17.70
2009,06,23,14,51,17.80
2009,06,23,14,52,17.80
2009,06,23,14,53,17.90
2009,06,23,14,54,18.00
2009,06,23,14,55,18.10
2009,06,23,14,56,18.10
2009,06,23,14,57,18.20
2009,06,23,14,58,18.10
2009,06,23,14,59,18.10
2009,06,23,15,00,18.10
2009,06,23,15,01,18.10
2009,06,23,15,02,18.10
2009,06,23,15,03,18.10
2009,06,23,15,04,18.10
2009,06,23,15,05,18.10
2009,06,23,15,06,18.10
2009,06,23,15,07,18.00
2009,06,23,15,08,18.00
2009,06,23,15,09,18.00
2009,06,23,15,10,18.10
2009,06,23,15,11,18.30
2009,06,23,15,12,18.30
2009,06,23,15,13,18.20
2009,06,23,15,14,18.20
2009,06,23,15,15,18.20
2009,06,23,15,16,18.30
2009,06,23,15,17,18.30
2009,06,23,15,18,18.40
2009,06,23,15,19,18.60
2009,06,23,15,20,18.70
2009,06,23,15,21,18.80
2009,06,23,15,22,18.70
2009,06,23,15,23,18.70
2009,06,23,15,24,18.60
2009,06,23,15,25,18.40
2009,06,23,15,26,18.30
2009,06,23,15,27,18.20
2009,06,23,15,28,18.20
2009,06,23,15,29,18.20
2009,06,23,15,30,18.30
2009,06,23,15,31,18.40
2009,06,23,15,32,18.40
2009,06,23,15,33,18.40
2009,06,23,15,34,18.20
2009,06,23,15,35,18.20
2009,06,23,15,36,18.10
2009,06,23,15,37,18.10
2009,06,23,15,38,18.10
2009,06,23,15,39,18.10
2009,06,23,15,40,18.10
2009,06,23,15,41,18.20
2009,06,23,15,42,18.10
2009,06,23,15,43,18.10
2009,06,23,15,44,18.10
2009,06,23,15,45,18.10
2009,06,23,15,46,18.10
2009,06,23,15,47,18.20
2009,06,23,15,48,18.20
2009,06,23,15,49,18.20
2009,06,23,15,50,18.20
2009,06,23,15,51,18.30
2009,06,23,15,52,18.30
2009,06,23,15,53,18.40
2009,06,23,15,54,18.40
2009,06,23,15,55,18.40
2009,06,23,15,56,18.30
2009,06,23,15,57,18.20
2009,06,23,15,58,18.20
2009,06,23,15,59,18.10
2009,06,23,16,00,18.10
2009,06,23,16,01,18.10
2009,06,23,16,02,18.20
2009,06,23,16,03,18.20
2009,06,23,16,04,18.20
2009,06,23,16,05,18.20
2009,06,23,16,06,18.20
2009,06,23,16,07,18.10
2009,06,23,16,08,18.00
2009,06,23,16,09,18.00
2009,06,23,16,10,18.00
2009,06,23,16,11,17.90
2009,06,23,16,12,17.90
2009,06,23,16,13,17.90
2009,06,23,16,14,17.90
2009,06,23,16,15,17.90
2009,06,23,16,16,18.00
2009,06,23,16,17,18.10
2009,06,23,16,18,18.20
2009,06,23,16,19,18.30
2009,06,23,16,20,18.30
2009,06,23,16,21,18.40
2009,06,23,16,22,18.30
2009,06,23,16,23,18.30
2009,06,23,16,24,18.30
2009,06,23,16,25,18.30
2009,06,23,16,26,18.30
2009,06,23,16,27,18.30
2009,06,23,16,28,18.40
2009,06,23,16,29,18.40
2009,06,23,16,30,18.40
2009,06,23,16,31,18.30
2009,06,23,16,32,18.30
2009,06,23,16,33,18.30
2009,06,23,16,34,18.30
2009,06,23,16,35,18.20
2009,06,23,16,36,18.20
2009,06,23,16,37,18.20
2009,06,23,16,38,18.20
2009,06,23,16,39,18.20
2009,06,23,16,40,18.20
2009,06,23,16,41,18.20
2009,06,23,16,42,18.20
2009,06,23,16,43,18.20
2009,06,23,16,44,18.20
2009,06,23,16,45,18.20
2009,06,23,16,46,18.30
2009,06,23,16,47,18.30
2009,06,23,16,48,18.40
2009,06,23,16,49,18.40
2009,06,23,16,50,18.40
2009,06,23,16,51,18.50
2009,06,23,16,52,18.50
2009,06,23,16,53,18.60
2009,06,23,16,54,18.60
2009,06,23,16,55,18.60
2009,06,23,16,56,18.60
2009,06,23,16,57,18.60
2009,06,23,16,58,18.70
2009,06,23,16,59,18.70
2009,06,23,17,00,18.80
2009,06,23,17,01,18.80
2009,06,23,17,02,18.80
2009,06,23,17,03,18.80
2009,06,23,17,04,18.80
2009,06,23,17,05,18.90
2009,06,23,17,06,18.80
2009,06,23,17,07,18.90
2009,06,23,17,08,18.80
2009,06,23,17,09,18.80
2009,06,23,17,10,18.80
2009,06,23,17,11,18.80
2009,06,23,17,12,18.90
2009,06,23,17,13,18.90
2009,06,23,17,14,19.10
2009,06,23,17,15,19.10
2009,06,23,17,16,19.20
2009,06,23,17,17,19.20
2009,06,23,17,18,19.10
2009,06,23,17,19,19.00
2009,06,23,17,20,18.90
2009,06,23,17,21,18.90
2009,06,23,17,22,18.90
2009,06,23,17,23,18.90
2009,06,23,17,24,18.90
2009,06,23,17,25,18.80
2009,06,23,17,26,18.80
2009,06,23,17,27,18.80
2009,06,23,17,28,18.80
2009,06,23,17,29,18.90
2009,06,23,17,30,18.90
2009,06,23,17,31,18.90
2009,06,23,17,32,18.90
2009,06,23,17,33,18.90
2009,06,23,17,34,18.90
2009,06,23,17,35,18.80
2009,06,23,17,36,18.60
2009,06,23,17,37,18.50